Time,TemperatureF,DewpointF,PressureIn,WindDirection,WindDirectionDegrees,WindSpeedMPH,WindSpeedGustMPH,Humidity,HourlyPrecipIn,Conditions,Clouds,dailyrainin,SoftwareType,DateUTC
2013-07-20 00:01:00,77.2,72.3,29.74,WSW,248,1.8,2.3,85,0.00,CLR,,0.00,WeatherDisplay:10.37,2013-07-20 04:01:00,
2013-07-20 00:02:00,77.2,72.3,29.74,NW,315,0.5,4.6,85,0.00,CLR,,0.00,WeatherDisplay:10.37,2013-07-20 04:02:00,
2013-07-20 00:07:00,77.2,72.3,29.74,SW,225,1.1,2.3,85,0.00,CLR,,0.00,WeatherDisplay:10.37,2013-07-20 04:07:00,
2013-07-20 00:12:00,77.0,72.1,29.74,SSW,202,0.5,0.5,85,0.00,CLR,,0.00,WeatherDisplay:10.37,2013-07-20 04:12:00,
2013-07-20 00:17:00,77.0,72.1,29.74,SW,225,4.7,4.7,85,0.00,CLR,,0.00,WeatherDisplay:10.37,2013-07-20 04:17:00,
2013-07-20 00:22:00,77.0,72.1,29.74,SW,225,0.5,1.1,85,0.00,CLR,,0.00,WeatherDisplay:10.37,2013-07-20 04:22:00,
2013-07-20 00:27:00,77.0,72.1,29.73,SSW,202,1.8,2.3,85,0.00,CLR,,0.00,WeatherDisplay:10.37,2013-07-20 04:27:00,
2013-07-20 00:32:00,77.0,72.5,29.73,WSW,248,2.6,2.6,86,0.00,CLR,,0.00,WeatherDisplay:10.37,2013-07-20 04:32:00,
2013-07-20 00:37:00,77.0,72.1,29.73,SW,225,1.4,2.3,85,0.00,CLR,,0.00,WeatherDisplay:10.37,2013-07-20 04:37:00,
2013-07-20 00:42:00,77.0,72.1,29.73,WSW,248,0.7,1.1,85,0.00,CLR,,0.00,WeatherDisplay:10.37,2013-07-20 04:42:00,
2013-07-20 00:47:00,76.8,72.0,29.73,WNW,292,3.8,3.8,85,0.00,CLR,,0.00,WeatherDisplay:10.37,2013-07-20 04:47:00,
2013-07-20 00:52:00,76.8,72.0,29.73,WSW,248,0.5,1.1,85,0.00,CLR,,0.00,WeatherDisplay:10.37,2013-07-20 04:52:00,
2013-07-20 00:57:00,76.6,72.1,29.73,WNW,292,0.9,2.3,86,0.00,CLR,,0.00,WeatherDisplay:10.37,2013-07-20 04:57:00,
2013-07-20 01:02:00,76.6,71.8,29.73,South,180,2.2,2.3,85,0.00,CLR,,0.00,WeatherDisplay:10.37,2013-07-20 05:02:00,
2013-07-20 01:07:00,76.6,71.8,29.73,SW,225,1.6,2.3,85,0.00,CLR,,0.00,WeatherDisplay:10.37,2013-07-20 05:07:00,
2013-07-20 01:12:00,76.6,72.1,29.73,SW,225,1.1,4.6,86,0.00,CLR,,0.00,WeatherDisplay:10.37,2013-07-20 05:12:00,
2013-07-20 01:17:00,76.5,72.0,29.73,SW,225,0.5,3.5,86,0.00,CLR,,0.00,WeatherDisplay:10.37,2013-07-20 05:17:00,
2013-07-20 01:22:00,76.5,72.0,29.73,SW,225,2.6,2.6,86,0.00,CLR,,0.00,WeatherDisplay:10.37,2013-07-20 05:22:00,
2013-07-20 01:27:00,76.3,72.1,29.73,WSW,248,4.5,4.6,87,0.00,CLR,,0.00,WeatherDisplay:10.37,2013-07-20 05:27:00,
2013-07-20 01:32:00,76.3,72.1,29.72,SW,225,1.1,2.3,87,0.00,CLR,,0.00,WeatherDisplay:10.37,2013-07-20 05:32:00,
2013-07-20 01:37:00,76.3,72.1,29.73,SW,225,3.1,4.6,87,0.00,CLR,,0.00,WeatherDisplay:10.37,2013-07-20 05:37:00,
2013-07-20 01:42:00,76.1,71.9,29.73,SW,225,3.3,4.6,87,0.00,CLR,,0.00,WeatherDisplay:10.37,2013-07-20 05:42:00,
2013-07-20 01:47:00,76.3,72.1,29.72,SSW,202,5.4,5.8,87,0.00,CLR,,0.00,WeatherDisplay:10.37,2013-07-20 05:47:00,
2013-07-20 01:52:00,76.1,71.9,29.73,WNW,292,1.6,3.5,87,0.00,CLR,,0.00,WeatherDisplay:10.37,2013-07-20 05:52:00,
2013-07-20 01:57:00,75.9,71.8,29.73,SSW,202,0.5,1.1,87,0.00,CLR,,0.00,WeatherDisplay:10.37,2013-07-20 05:57:00,
2013-07-20 02:02:00,75.9,71.8,29.73,SW,225,0.2,1.1,87,0.00,CLR,,0.00,WeatherDisplay:10.37,2013-07-20 06:02:00,
2013-07-20 02:07:00,75.9,72.1,29.72,SW,225,2.4,2.4,88,0.00,CLR,,0.00,WeatherDisplay:10.37,2013-07-20 06:07:00,
2013-07-20 02:12:00,75.9,72.1,29.72,SW,225,1.8,4.6,88,0.00,CLR,,0.00,WeatherDisplay:10.37,2013-07-20 06:12:00,
2013-07-20 02:17:00,75.9,72.1,29.72,SW,225,4.9,4.9,88,0.00,CLR,,0.00,WeatherDisplay:10.37,2013-07-20 06:17:00,
2013-07-20 02:22:00,75.7,71.9,29.72,WSW,248,1.6,1.6,88,0.00,CLR,,0.00,WeatherDisplay:10.37,2013-07-20 06:22:00,
2013-07-20 02:27:00,75.7,71.9,29.72,SW,225,2.9,2.9,88,0.00,CLR,,0.00,WeatherDisplay:10.37,2013-07-20 06:27:00,
2013-07-20 02:32:00,75.7,71.9,29.72,SSW,202,1.8,3.5,88,0.00,CLR,,0.00,WeatherDisplay:10.37,2013-07-20 06:32:00,
2013-07-20 02:37:00,75.7,71.9,29.72,SW,225,1.1,1.1,88,0.00,CLR,,0.00,WeatherDisplay:10.37,2013-07-20 06:37:00,
2013-07-20 02:42:00,75.7,72.3,29.72,SW,225,1.6,6.9,89,0.00,CLR,,0.00,WeatherDisplay:10.37,2013-07-20 06:42:00,
2013-07-20 02:47:00,75.6,71.8,29.72,South,180,1.1,1.1,88,0.00,CLR,,0.00,WeatherDisplay:10.37,2013-07-20 06:47:00,
2013-07-20 02:52:00,75.6,71.8,29.72,SSW,202,0.2,3.5,88,0.00,CLR,,0.00,WeatherDisplay:10.37,2013-07-20 06:52:00,
2013-07-20 02:57:00,75.6,72.1,29.71,SSW,202,3.1,4.6,89,0.00,CLR,,0.00,WeatherDisplay:10.37,2013-07-20 06:57:00,
2013-07-20 03:02:00,75.6,72.1,29.71,SW,225,1.1,2.3,89,0.00,CLR,,0.00,WeatherDisplay:10.37,2013-07-20 07:02:00,
2013-07-20 03:07:00,75.6,72.1,29.71,SW,225,0.9,1.1,89,0.00,CLR,,0.00,WeatherDisplay:10.37,2013-07-20 07:07:00,
2013-07-20 03:12:00,75.6,72.1,29.71,SW,225,2.0,4.6,89,0.00,CLR,,0.00,WeatherDisplay:10.37,2013-07-20 07:12:00,
2013-07-20 03:17:00,75.6,72.1,29.71,NW,315,0.9,1.1,89,0.00,CLR,,0.00,WeatherDisplay:10.37,2013-07-20 07:17:00,
2013-07-20 03:22:00,75.4,71.9,29.70,SSW,202,2.0,4.6,89,0.00,CLR,,0.00,WeatherDisplay:10.37,2013-07-20 07:22:00,
2013-07-20 03:27:00,75.4,71.9,29.71,ESE,112,0.7,1.1,89,0.00,CLR,,0.00,WeatherDisplay:10.37,2013-07-20 07:27:00,
2013-07-20 03:32:00,75.4,71.9,29.71,West,270,2.4,2.4,89,0.00,CLR,,0.00,WeatherDisplay:10.37,2013-07-20 07:32:00,
2013-07-20 03:37:00,75.4,71.9,29.71,West,270,2.0,2.3,89,0.00,CLR,,0.00,WeatherDisplay:10.37,2013-07-20 07:37:00,
2013-07-20 03:42:00,75.4,71.9,29.71,WSW,248,3.6,3.6,89,0.00,CLR,,0.00,WeatherDisplay:10.37,2013-07-20 07:42:00,
2013-07-20 03:47:00,75.4,71.9,29.70,West,270,0.5,2.3,89,0.00,CLR,,0.00,WeatherDisplay:10.37,2013-07-20 07:47:00,
2013-07-20 03:52:00,75.4,71.9,29.70,West,270,4.5,4.6,89,0.00,CLR,,0.00,WeatherDisplay:10.37,2013-07-20 07:52:00,
2013-07-20 03:57:00,75.4,71.9,29.70,WSW,248,0.5,3.5,89,0.00,CLR,,0.00,WeatherDisplay:10.37,2013-07-20 07:57:00,
2013-07-20 04:02:00,75.4,71.9,29.70,West,270,2.6,4.6,89,0.00,CLR,,0.00,WeatherDisplay:10.37,2013-07-20 08:02:00,
2013-07-20 04:07:00,75.4,72.2,29.70,SW,225,0.5,2.3,90,0.00,CLR,,0.00,WeatherDisplay:10.37,2013-07-20 08:07:00,
2013-07-20 04:12:00,75.2,71.7,29.70,SSW,202,1.1,1.1,89,0.00,CLR,,0.00,WeatherDisplay:10.37,2013-07-20 08:12:00,
2013-07-20 04:17:00,75.2,71.7,29.70,SW,225,4.3,4.6,89,0.00,CLR,,0.00,WeatherDisplay:10.37,2013-07-20 08:17:00,
2013-07-20 04:22:00,75.2,72.1,29.70,West,270,1.1,2.3,90,0.00,CLR,,0.00,WeatherDisplay:10.37,2013-07-20 08:22:00,
2013-07-20 04:27:00,75.2,72.1,29.70,West,270,2.4,4.6,90,0.00,CLR,,0.00,WeatherDisplay:10.37,2013-07-20 08:27:00,
2013-07-20 04:32:00,75.2,72.1,29.70,SSW,202,1.1,1.1,90,0.00,CLR,,0.00,WeatherDisplay:10.37,2013-07-20 08:32:00,
2013-07-20 04:37:00,75.2,72.4,29.70,WSW,248,1.1,3.5,91,0.00,CLR,,0.00,WeatherDisplay:10.37,2013-07-20 08:37:00,
2013-07-20 04:42:00,75.2,72.1,29.70,SSW,202,0.9,1.1,90,0.00,CLR,,0.00,WeatherDisplay:10.37,2013-07-20 08:42:00,
2013-07-20 04:47:00,75.2,72.4,29.70,West,270,2.4,2.4,91,0.00,CLR,,0.00,WeatherDisplay:10.37,2013-07-20 08:47:00,
2013-07-20 04:52:00,75.2,72.1,29.70,SSW,202,5.6,5.6,90,0.00,CLR,,0.00,WeatherDisplay:10.37,2013-07-20 08:52:00,
2013-07-20 04:57:00,75.2,72.1,29.70,WSW,248,1.4,3.5,90,0.00,CLR,,0.00,WeatherDisplay:10.37,2013-07-20 08:57:00,
2013-07-20 05:02:00,75.2,72.4,29.69,SW,225,2.0,2.3,91,0.00,CLR,,0.00,WeatherDisplay:10.37,2013-07-20 09:02:00,
2013-07-20 05:07:00,75.2,72.4,29.70,SW,225,1.1,1.1,91,0.00,CLR,,0.00,WeatherDisplay:10.37,2013-07-20 09:07:00,
2013-07-20 05:12:00,75.2,72.4,29.69,SSW,202,0.5,2.3,91,0.00,CLR,,0.00,WeatherDisplay:10.37,2013-07-20 09:12:00,
2013-07-20 05:17:00,75.2,72.1,29.69,SW,225,0.7,2.3,90,0.00,CLR,,0.00,WeatherDisplay:10.37,2013-07-20 09:17:00,
2013-07-20 05:22:00,75.2,72.1,29.69,WSW,248,1.8,3.5,90,0.00,CLR,,0.00,WeatherDisplay:10.37,2013-07-20 09:22:00,
2013-07-20 05:27:00,75.2,72.1,29.69,SW,225,0.5,3.5,90,0.00,CLR,,0.00,WeatherDisplay:10.37,2013-07-20 09:27:00,
2013-07-20 05:32:00,75.2,72.4,29.69,NW,315,1.6,1.6,91,0.00,CLR,,0.00,WeatherDisplay:10.37,2013-07-20 09:32:00,
2013-07-20 05:37:00,75.2,72.4,29.69,WNW,292,1.8,2.3,91,0.00,CLR,,0.00,WeatherDisplay:10.37,2013-07-20 09:37:00,
2013-07-20 05:42:00,75.4,72.2,29.69,WSW,248,1.8,4.6,90,0.00,CLR,,0.00,WeatherDisplay:10.37,2013-07-20 09:42:00,
2013-07-20 05:47:00,75.4,72.6,29.69,WSW,248,1.1,2.3,91,0.00,CLR,,0.00,WeatherDisplay:10.37,2013-07-20 09:47:00,
2013-07-20 05:52:00,75.4,72.2,29.70,South,180,2.6,2.6,90,0.00,CLR,,0.00,WeatherDisplay:10.37,2013-07-20 09:52:00,
2013-07-20 05:57:00,75.4,72.6,29.70,SSW,202,1.4,3.5,91,0.00,CLR,,0.00,WeatherDisplay:10.37,2013-07-20 09:57:00,
2013-07-20 06:02:00,75.4,72.2,29.70,SW,225,3.3,3.5,90,0.00,CLR,,0.00,WeatherDisplay:10.37,2013-07-20 10:02:00,
2013-07-20 06:07:00,75.6,72.4,29.69,SW,225,0.7,1.1,90,0.00,CLR,,0.00,WeatherDisplay:10.37,2013-07-20 10:07:00,
2013-07-20 06:12:00,75.6,72.4,29.70,SSW,202,0.0,1.1,90,0.00,CLR,,0.00,WeatherDisplay:10.37,2013-07-20 10:12:00,
2013-07-20 06:17:00,75.7,72.6,29.70,SSW,202,1.4,2.3,90,0.00,CLR,,0.00,WeatherDisplay:10.37,2013-07-20 10:17:00,
2013-07-20 06:22:00,75.9,72.8,29.69,SW,225,0.0,1.1,90,0.00,CLR,,0.00,WeatherDisplay:10.37,2013-07-20 10:22:00,
2013-07-20 06:27:00,75.9,72.8,29.69,SSE,158,1.1,2.3,90,0.00,CLR,,0.00,WeatherDisplay:10.37,2013-07-20 10:27:00,
2013-07-20 06:32:00,76.1,73.0,29.69,SW,225,3.3,3.5,90,0.00,CLR,,0.00,WeatherDisplay:10.37,2013-07-20 10:32:00,
2013-07-20 06:37:00,76.3,73.1,29.69,SSW,202,2.0,2.3,90,0.00,CLR,,0.00,WeatherDisplay:10.37,2013-07-20 10:37:00,
2013-07-20 06:42:00,76.5,73.3,29.69,SW,225,2.6,2.6,90,0.00,CLR,,0.00,WeatherDisplay:10.37,2013-07-20 10:42:00,
2013-07-20 06:47:00,76.6,73.5,29.70,SSW,202,2.9,3.5,90,0.00,CLR,,0.00,WeatherDisplay:10.37,2013-07-20 10:47:00,
2013-07-20 06:52:00,76.6,73.5,29.69,SW,225,3.3,3.3,90,0.00,CLR,,0.00,WeatherDisplay:10.37,2013-07-20 10:52:00,
2013-07-20 06:57:00,77.0,73.5,29.70,WSW,248,2.0,2.3,89,0.00,CLR,,0.00,WeatherDisplay:10.37,2013-07-20 10:57:00,
2013-07-20 07:02:00,77.0,73.5,29.70,SSW,202,1.8,2.3,89,0.00,CLR,,0.00,WeatherDisplay:10.37,2013-07-20 11:02:00,
2013-07-20 07:07:00,77.2,73.7,29.70,WSW,248,5.4,5.8,89,0.00,CLR,,0.00,WeatherDisplay:10.37,2013-07-20 11:07:00,
2013-07-20 07:12:00,77.4,73.9,29.70,SSW,202,1.1,1.1,89,0.00,CLR,,0.00,WeatherDisplay:10.37,2013-07-20 11:12:00,
2013-07-20 07:17:00,77.5,74.0,29.70,NNE,22,2.2,2.3,89,0.00,CLR,,0.00,WeatherDisplay:10.37,2013-07-20 11:17:00,
2013-07-20 07:22:00,77.7,73.9,29.70,SW,225,0.9,2.3,88,0.00,CLR,,0.00,WeatherDisplay:10.37,2013-07-20 11:22:00,
2013-07-20 07:27:00,77.9,74.1,29.70,WSW,248,4.0,4.6,88,0.00,CLR,,0.00,WeatherDisplay:10.37,2013-07-20 11:27:00,
2013-07-20 07:32:00,78.1,74.2,29.71,SW,225,4.7,4.7,88,0.00,CLR,,0.00,WeatherDisplay:10.37,2013-07-20 11:32:00,
2013-07-20 07:37:00,78.4,74.2,29.71,South,180,0.5,2.3,87,0.00,CLR,,0.00,WeatherDisplay:10.37,2013-07-20 11:37:00,
2013-07-20 07:42:00,78.6,74.4,29.70,SW,225,3.1,3.1,87,0.00,CLR,,0.00,WeatherDisplay:10.37,2013-07-20 11:42:00,
2013-07-20 07:47:00,78.8,74.6,29.70,WSW,248,1.6,4.6,87,0.00,CLR,,0.00,WeatherDisplay:10.37,2013-07-20 11:47:00,
2013-07-20 07:52:00,79.2,74.6,29.71,SW,225,2.2,3.5,86,0.00,CLR,,0.00,WeatherDisplay:10.37,2013-07-20 11:52:00,
2013-07-20 07:57:00,79.5,75.0,29.71,WNW,292,2.0,4.6,86,0.00,CLR,,0.00,WeatherDisplay:10.37,2013-07-20 11:57:00,
2013-07-20 08:02:00,79.7,74.8,29.71,SW,225,3.1,3.1,85,0.00,CLR,,0.00,WeatherDisplay:10.37,2013-07-20 12:02:00,
2013-07-20 08:07:00,79.9,74.6,29.71,West,270,6.0,6.0,84,0.00,CLR,,0.00,WeatherDisplay:10.37,2013-07-20 12:07:00,
2013-07-20 08:12:00,80.2,75.0,29.71,SSW,202,1.8,4.6,84,0.00,CLR,,0.00,WeatherDisplay:10.37,2013-07-20 12:12:00,
2013-07-20 08:17:00,80.6,75.3,29.72,West,270,0.5,2.3,84,0.00,CLR,,0.00,WeatherDisplay:10.37,2013-07-20 12:17:00,
2013-07-20 08:22:00,81.0,75.3,29.72,SW,225,2.0,4.6,83,0.00,CLR,,0.00,WeatherDisplay:10.37,2013-07-20 12:22:00,
2013-07-20 08:27:00,81.1,75.5,29.71,WNW,292,1.4,4.6,83,0.00,CLR,,0.00,WeatherDisplay:10.37,2013-07-20 12:27:00,
2013-07-20 08:32:00,81.7,76.4,29.71,WSW,248,1.8,2.3,84,0.00,CLR,,0.00,WeatherDisplay:10.37,2013-07-20 12:32:00,
2013-07-20 08:37:00,82.2,76.5,29.72,SW,225,2.0,4.6,83,0.00,CLR,,0.00,WeatherDisplay:10.37,2013-07-20 12:37:00,
2013-07-20 08:42:00,82.4,76.3,29.71,SSW,202,3.8,4.6,82,0.00,CLR,,0.00,WeatherDisplay:10.37,2013-07-20 12:42:00,
2013-07-20 08:47:00,82.8,76.3,29.71,SSW,202,4.7,4.7,81,0.00,CLR,,0.00,WeatherDisplay:10.37,2013-07-20 12:47:00,
2013-07-20 08:52:00,83.1,76.7,29.71,South,180,3.6,3.6,81,0.00,CLR,,0.00,WeatherDisplay:10.37,2013-07-20 12:52:00,
2013-07-20 08:57:00,83.5,77.0,29.71,SW,225,2.0,5.8,81,0.00,CLR,,0.00,WeatherDisplay:10.37,2013-07-20 12:57:00,
2013-07-20 09:02:00,83.8,76.6,29.71,SW,225,4.7,5.8,79,0.00,CLR,,0.00,WeatherDisplay:10.37,2013-07-20 13:02:00,
2013-07-20 09:07:00,84.0,76.8,29.71,WSW,248,7.6,7.6,79,0.00,CLR,,0.00,WeatherDisplay:10.37,2013-07-20 13:07:00,
2013-07-20 09:12:00,84.4,77.2,29.70,SSW,202,0.7,1.1,79,0.00,CLR,,0.00,WeatherDisplay:10.37,2013-07-20 13:12:00,
2013-07-20 09:17:00,84.7,77.5,29.70,South,180,0.9,2.3,79,0.00,CLR,,0.00,WeatherDisplay:10.37,2013-07-20 13:17:00,
2013-07-20 09:22:00,85.3,76.9,29.70,SW,225,3.8,5.8,76,0.00,CLR,,0.00,WeatherDisplay:10.37,2013-07-20 13:22:00,
2013-07-20 09:27:00,85.5,77.4,29.70,SSW,202,2.6,2.6,77,0.00,CLR,,0.00,WeatherDisplay:10.37,2013-07-20 13:27:00,
2013-07-20 09:32:00,86.0,77.5,29.69,SW,225,3.8,3.8,76,0.00,CLR,,0.00,WeatherDisplay:10.37,2013-07-20 13:32:00,
2013-07-20 09:37:00,86.4,77.9,29.69,SW,225,1.8,6.9,76,0.00,CLR,,0.00,WeatherDisplay:10.37,2013-07-20 13:37:00,
2013-07-20 09:42:00,86.7,77.8,29.69,West,270,5.4,5.4,75,0.00,CLR,,0.00,WeatherDisplay:10.37,2013-07-20 13:42:00,
2013-07-20 09:47:00,86.9,77.2,29.70,SSW,202,3.1,3.5,73,0.00,CLR,,0.00,WeatherDisplay:10.37,2013-07-20 13:47:00,
2013-07-20 09:52:00,86.9,77.6,29.69,SE,135,2.0,2.3,74,0.00,CLR,,0.00,WeatherDisplay:10.37,2013-07-20 13:52:00,
2013-07-20 09:57:00,87.1,77.0,29.70,SSW,202,4.7,6.9,72,0.00,CLR,,0.00,WeatherDisplay:10.37,2013-07-20 13:57:00,
2013-07-20 10:02:00,87.1,77.0,29.70,SSW,202,2.9,3.5,72,0.00,CLR,,0.00,WeatherDisplay:10.37,2013-07-20 14:02:00,
2013-07-20 10:07:00,86.5,76.9,29.69,WSW,248,4.0,9.2,73,0.00,CLR,,0.00,WeatherDisplay:10.37,2013-07-20 14:07:00,
2013-07-20 10:12:00,86.4,76.7,29.70,SSW,202,3.6,4.6,73,0.00,CLR,,0.00,WeatherDisplay:10.37,2013-07-20 14:12:00,
2013-07-20 10:17:00,86.0,76.3,29.69,South,180,4.3,4.6,73,0.00,CLR,,0.00,WeatherDisplay:10.37,2013-07-20 14:17:00,
2013-07-20 10:22:00,85.5,76.6,29.69,SW,225,5.6,5.8,75,0.00,CLR,,0.00,WeatherDisplay:10.37,2013-07-20 14:22:00,
2013-07-20 10:27:00,86.0,76.7,29.69,SSW,202,2.2,4.6,74,0.00,CLR,,0.00,WeatherDisplay:10.37,2013-07-20 14:27:00,
2013-07-20 10:32:00,86.7,77.8,29.69,SW,225,9.0,9.2,75,0.00,CLR,,0.00,WeatherDisplay:10.37,2013-07-20 14:32:00,
2013-07-20 10:37:00,87.4,77.7,29.69,South,180,2.2,4.6,73,0.00,CLR,,0.00,WeatherDisplay:10.37,2013-07-20 14:37:00,
2013-07-20 10:42:00,87.4,77.3,29.69,SSW,202,2.6,5.8,72,0.00,CLR,,0.00,WeatherDisplay:10.37,2013-07-20 14:42:00,
2013-07-20 10:47:00,87.4,77.3,29.69,SSW,202,5.9,5.9,72,0.00,CLR,,0.00,WeatherDisplay:10.37,2013-07-20 14:47:00,
2013-07-20 10:52:00,87.8,77.6,29.69,WSW,248,6.9,6.9,72,0.00,CLR,,0.00,WeatherDisplay:10.37,2013-07-20 14:52:00,
2013-07-20 10:57:00,88.0,77.4,29.69,South,180,3.8,8.1,71,0.00,CLR,,0.00,WeatherDisplay:10.37,2013-07-20 14:57:00,
2013-07-20 11:02:00,88.0,77.4,29.69,South,180,9.9,10.4,71,0.00,CLR,,0.00,WeatherDisplay:10.37,2013-07-20 15:02:00,
2013-07-20 11:07:00,88.2,77.6,29.69,WSW,248,4.5,4.6,71,0.00,CLR,,0.00,WeatherDisplay:10.37,2013-07-20 15:07:00,
2013-07-20 11:12:00,88.5,77.5,29.69,WSW,248,5.9,10.4,70,0.00,CLR,,0.00,WeatherDisplay:10.37,2013-07-20 15:12:00,
2013-07-20 11:17:00,88.7,77.2,29.68,SW,225,2.0,6.9,69,0.00,CLR,,0.00,WeatherDisplay:10.37,2013-07-20 15:17:00,
2013-07-20 11:22:00,88.9,76.9,29.69,SSW,202,4.7,8.1,68,0.00,CLR,,0.00,WeatherDisplay:10.37,2013-07-20 15:22:00,
2013-07-20 11:27:00,88.2,76.7,29.68,SW,225,4.7,8.1,69,0.00,CLR,,0.00,WeatherDisplay:10.37,2013-07-20 15:27:00,
2013-07-20 11:32:00,87.6,76.6,29.68,WSW,248,8.1,8.1,70,0.00,CLR,,0.00,WeatherDisplay:10.37,2013-07-20 15:32:00,
2013-07-20 11:37:00,87.4,76.9,29.68,SSW,202,4.7,4.7,71,0.00,CLR,,0.00,WeatherDisplay:10.37,2013-07-20 15:37:00,
2013-07-20 11:42:00,88.0,77.8,29.68,SSW,202,4.5,4.6,72,0.00,CLR,,0.00,WeatherDisplay:10.37,2013-07-20 15:42:00,
2013-07-20 11:47:00,88.5,77.5,29.68,South,180,2.0,3.5,70,0.00,CLR,,0.00,WeatherDisplay:10.37,2013-07-20 15:47:00,
2013-07-20 11:52:00,88.2,76.7,29.68,NW,315,3.8,4.6,69,0.00,CLR,,0.00,WeatherDisplay:10.37,2013-07-20 15:52:00,
2013-07-20 11:57:00,88.3,76.9,29.69,South,180,0.5,4.6,69,0.00,CLR,,0.00,WeatherDisplay:10.37,2013-07-20 15:57:00,
2013-07-20 12:02:00,88.5,76.6,29.68,SW,225,1.6,6.9,68,0.00,CLR,,0.00,WeatherDisplay:10.37,2013-07-20 16:02:00,
2013-07-20 12:07:00,88.3,76.9,29.68,South,180,9.0,9.2,69,0.00,CLR,,0.00,WeatherDisplay:10.37,2013-07-20 16:07:00,
2013-07-20 12:12:00,87.6,76.2,29.68,SW,225,6.2,8.1,69,0.00,CLR,,0.00,WeatherDisplay:10.37,2013-07-20 16:12:00,
2013-07-20 12:17:00,87.1,76.1,29.68,SSW,202,4.5,5.8,70,0.00,CLR,,0.00,WeatherDisplay:10.37,2013-07-20 16:17:00,
2013-07-20 12:22:00,87.4,76.4,29.68,SSW,202,9.9,9.9,70,0.00,CLR,,0.00,WeatherDisplay:10.37,2013-07-20 16:22:00,
2013-07-20 12:27:00,87.3,76.3,29.67,SSW,202,2.4,5.8,70,0.00,CLR,,0.00,WeatherDisplay:10.37,2013-07-20 16:27:00,
2013-07-20 12:32:00,87.1,76.5,29.67,SSW,202,1.1,9.2,71,0.00,CLR,,0.00,WeatherDisplay:10.37,2013-07-20 16:32:00,
2013-07-20 12:37:00,87.6,76.6,29.67,WSW,248,7.8,8.1,70,0.00,CLR,,0.00,WeatherDisplay:10.37,2013-07-20 16:37:00,
2013-07-20 12:42:00,87.8,76.8,29.67,WSW,248,3.8,5.8,70,0.00,CLR,,0.00,WeatherDisplay:10.37,2013-07-20 16:42:00,
2013-07-20 12:47:00,87.4,76.0,29.68,South,180,4.3,8.1,69,0.00,CLR,,0.00,WeatherDisplay:10.37,2013-07-20 16:47:00,
2013-07-20 12:52:00,87.8,77.2,29.67,SW,225,5.9,5.9,71,0.00,CLR,,0.00,WeatherDisplay:10.37,2013-07-20 16:52:00,
2013-07-20 12:57:00,88.5,77.0,29.67,SW,225,6.2,6.9,69,0.00,CLR,,0.00,WeatherDisplay:10.37,2013-07-20 16:57:00,
2013-07-20 13:02:00,88.7,76.8,29.67,SSW,202,5.4,8.1,68,0.00,CLR,,0.00,WeatherDisplay:10.37,2013-07-20 17:02:00,
2013-07-20 13:07:00,89.2,77.3,29.67,WSW,248,0.5,4.6,68,0.00,CLR,,0.00,WeatherDisplay:10.37,2013-07-20 17:07:00,
2013-07-20 13:12:00,89.6,77.2,29.67,WNW,292,6.0,6.0,67,0.00,CLR,,0.00,WeatherDisplay:10.37,2013-07-20 17:12:00,
2013-07-20 13:17:00,90.1,77.7,29.67,SSW,202,4.0,8.1,67,0.00,CLR,,0.00,WeatherDisplay:10.37,2013-07-20 17:17:00,
2013-07-20 13:22:00,90.1,77.7,29.66,SSW,202,4.9,4.9,67,0.00,CLR,,0.00,WeatherDisplay:10.37,2013-07-20 17:22:00,
2013-07-20 13:27:00,90.0,77.5,29.66,SSW,202,6.2,6.2,67,0.00,CLR,,0.00,WeatherDisplay:10.37,2013-07-20 17:27:00,
2013-07-20 13:32:00,89.6,76.7,29.66,South,180,3.6,4.6,66,0.00,CLR,,0.00,WeatherDisplay:10.37,2013-07-20 17:32:00,
2013-07-20 13:37:00,89.8,77.4,29.66,South,180,1.8,5.8,67,0.00,CLR,,0.00,WeatherDisplay:10.37,2013-07-20 17:37:00,
2013-07-20 13:42:00,89.8,77.4,29.66,SSW,202,5.9,8.1,67,0.00,CLR,,0.00,WeatherDisplay:10.37,2013-07-20 17:42:00,
2013-07-20 13:47:00,89.8,76.4,29.66,SW,225,6.9,6.9,65,0.00,CLR,,0.00,WeatherDisplay:10.37,2013-07-20 17:47:00,
2013-07-20 13:52:00,89.6,76.7,29.66,SSW,202,2.4,8.1,66,0.00,CLR,,0.00,WeatherDisplay:10.37,2013-07-20 17:52:00,
2013-07-20 13:57:00,89.4,76.1,29.66,South,180,7.6,9.2,65,0.00,CLR,,0.00,WeatherDisplay:10.37,2013-07-20 17:57:00,
2013-07-20 14:02:00,89.1,76.7,29.66,SW,225,6.4,8.1,67,0.00,CLR,,0.00,WeatherDisplay:10.37,2013-07-20 18:02:00,
2013-07-20 14:07:00,88.9,76.5,29.66,South,180,9.4,9.4,67,0.00,CLR,,0.00,WeatherDisplay:10.37,2013-07-20 18:07:00,
2013-07-20 14:12:00,89.1,76.7,29.65,SSW,202,4.7,5.8,67,0.00,CLR,,0.00,WeatherDisplay:10.37,2013-07-20 18:12:00,
2013-07-20 14:17:00,89.2,76.8,29.65,SSE,158,3.8,5.8,67,0.00,CLR,,0.00,WeatherDisplay:10.37,2013-07-20 18:17:00,
2013-07-20 14:22:00,89.4,76.6,29.65,South,180,3.8,6.9,66,0.00,CLR,,0.00,WeatherDisplay:10.37,2013-07-20 18:22:00,
2013-07-20 14:27:00,89.6,76.3,29.65,SSW,202,5.9,7.6,65,0.00,CLR,,0.00,WeatherDisplay:10.37,2013-07-20 18:27:00,
2013-07-20 14:32:00,89.8,76.0,29.65,West,270,7.6,8.3,64,0.00,CLR,,0.00,WeatherDisplay:10.37,2013-07-20 18:32:00,
2013-07-20 14:37:00,89.6,76.7,29.64,SSW,202,7.6,7.6,66,0.00,CLR,,0.00,WeatherDisplay:10.37,2013-07-20 18:37:00,
2013-07-20 14:43:00,89.6,76.7,29.65,SSW,202,3.6,5.8,66,0.00,CLR,,0.00,WeatherDisplay:10.37,2013-07-20 18:43:00,
2013-07-20 14:48:00,89.2,75.9,29.64,SSE,158,9.9,10.4,65,0.00,CLR,,0.00,WeatherDisplay:10.37,2013-07-20 18:48:00,
2013-07-20 14:53:00,88.9,76.0,29.65,SSE,158,1.8,5.8,66,0.00,CLR,,0.00,WeatherDisplay:10.37,2013-07-20 18:53:00,
2013-07-20 14:58:00,88.5,75.7,29.65,West,270,7.4,9.9,66,0.00,CLR,,0.00,WeatherDisplay:10.37,2013-07-20 18:58:00,
2013-07-20 15:04:00,88.3,75.5,29.64,South,180,1.6,6.9,66,0.00,CLR,,0.00,WeatherDisplay:10.37,2013-07-20 19:04:00,
2013-07-20 15:09:00,88.3,76.0,29.64,SW,225,6.4,8.1,67,0.00,CLR,,0.00,WeatherDisplay:10.37,2013-07-20 19:09:00,
2013-07-20 15:14:00,88.2,75.4,29.64,SSE,158,5.4,5.8,66,0.00,CLR,,0.00,WeatherDisplay:10.37,2013-07-20 19:14:00,
2013-07-20 15:19:00,88.2,75.8,29.65,West,270,3.6,6.9,67,0.00,CLR,,0.00,WeatherDisplay:10.37,2013-07-20 19:19:00,
2013-07-20 15:25:00,88.5,76.2,29.64,WSW,248,5.2,5.8,67,0.00,CLR,,0.00,WeatherDisplay:10.37,2013-07-20 19:25:00,
2013-07-20 15:30:00,88.7,76.3,29.64,SE,135,8.3,8.3,67,0.00,CLR,,0.00,WeatherDisplay:10.37,2013-07-20 19:30:00,
2013-07-20 15:35:00,88.5,76.6,29.64,SSW,202,3.3,5.8,68,0.00,CLR,,0.00,WeatherDisplay:10.37,2013-07-20 19:35:00,
2013-07-20 15:40:00,88.7,76.3,29.64,SW,225,1.6,6.9,67,0.00,CLR,,0.00,WeatherDisplay:10.37,2013-07-20 19:40:00,
2013-07-20 15:45:00,88.5,76.2,29.64,SSW,202,1.1,5.8,67,0.00,CLR,,0.00,WeatherDisplay:10.37,2013-07-20 19:45:00,
2013-07-20 15:51:00,88.7,75.9,29.63,SW,225,5.4,6.9,66,0.00,CLR,,0.00,WeatherDisplay:10.37,2013-07-20 19:51:00,
2013-07-20 15:56:00,88.9,76.0,29.63,SW,225,2.9,6.9,66,0.00,CLR,,0.00,WeatherDisplay:10.37,2013-07-20 19:56:00,
2013-07-20 16:01:00,88.9,76.0,29.63,West,270,6.0,6.0,66,0.00,CLR,,0.00,WeatherDisplay:10.37,2013-07-20 20:01:00,
2013-07-20 16:06:00,88.7,75.9,29.64,South,180,3.1,8.1,66,0.00,CLR,,0.00,WeatherDisplay:10.37,2013-07-20 20:06:00,
2013-07-20 16:11:00,88.9,76.5,29.64,SW,225,2.9,7.1,67,0.00,CLR,,0.00,WeatherDisplay:10.37,2013-07-20 20:11:00,
2013-07-20 16:17:00,89.1,76.2,29.65,SSE,158,2.2,9.2,66,0.00,CLR,,0.00,WeatherDisplay:10.37,2013-07-20 20:17:00,
2013-07-20 16:23:00,89.4,77.0,29.65,SSW,202,2.9,4.7,67,0.00,CLR,,0.00,WeatherDisplay:10.37,2013-07-20 20:23:00,
2013-07-20 16:28:00,89.6,76.7,29.65,West,270,4.7,4.7,66,0.00,CLR,,0.00,WeatherDisplay:10.37,2013-07-20 20:28:00,
2013-07-20 16:34:00,89.6,76.7,29.65,WSW,248,4.9,8.5,66,0.00,CLR,,0.00,WeatherDisplay:10.37,2013-07-20 20:34:00,
2013-07-20 16:40:00,90.0,76.6,29.65,SW,225,3.1,5.8,65,0.00,CLR,,0.00,WeatherDisplay:10.37,2013-07-20 20:40:00,
2013-07-20 16:46:00,91.2,77.8,29.65,SW,225,3.6,5.8,65,0.00,CLR,,0.00,WeatherDisplay:10.37,2013-07-20 20:46:00,
2013-07-20 16:51:00,92.3,76.9,29.66,SSW,202,7.1,8.1,61,0.00,CLR,,0.00,WeatherDisplay:10.37,2013-07-20 20:51:00,
2013-07-20 16:56:00,92.1,76.7,29.66,SSW,202,3.1,6.9,61,0.00,CLR,,0.00,WeatherDisplay:10.37,2013-07-20 20:56:00,
2013-07-20 17:01:00,92.3,77.4,29.66,SW,225,2.4,4.6,62,0.00,CLR,,0.00,WeatherDisplay:10.37,2013-07-20 21:01:00,
2013-07-20 17:06:00,92.8,77.4,29.66,South,180,6.2,6.9,61,0.00,CLR,,0.00,WeatherDisplay:10.37,2013-07-20 21:06:00,
2013-07-20 17:11:00,92.8,76.9,29.66,SW,225,4.7,8.1,60,0.00,CLR,,0.00,WeatherDisplay:10.37,2013-07-20 21:11:00,
2013-07-20 17:16:00,92.5,76.6,29.66,West,270,6.9,6.9,60,0.00,CLR,,0.00,WeatherDisplay:10.37,2013-07-20 21:16:00,
2013-07-20 17:22:00,90.3,76.0,29.66,SSW,202,2.4,8.1,63,0.00,CLR,,0.00,WeatherDisplay:10.37,2013-07-20 21:22:00,
2013-07-20 17:27:00,88.7,75.9,29.67,SW,225,4.9,5.9,66,0.00,CLR,,0.00,WeatherDisplay:10.37,2013-07-20 21:27:00,
2013-07-20 17:32:00,87.6,75.7,29.67,SSE,158,6.0,6.0,68,0.00,CLR,,0.00,WeatherDisplay:10.37,2013-07-20 21:32:00,
2013-07-20 17:37:00,87.1,75.2,29.67,SSW,202,4.0,4.6,68,0.00,CLR,,0.00,WeatherDisplay:10.37,2013-07-20 21:37:00,
2013-07-20 17:42:00,86.9,75.5,29.67,WSW,248,6.2,6.2,69,0.00,CLR,,0.00,WeatherDisplay:10.37,2013-07-20 21:42:00,
2013-07-20 17:47:00,86.4,75.4,29.67,WSW,248,2.6,5.8,70,0.00,CLR,,0.00,WeatherDisplay:10.37,2013-07-20 21:47:00,
2013-07-20 17:52:00,85.8,74.9,29.66,West,270,0.9,4.0,70,0.00,CLR,,0.00,WeatherDisplay:10.37,2013-07-20 21:52:00,
2013-07-20 17:58:00,85.5,75.4,29.67,West,270,0.9,5.8,72,0.00,CLR,,0.00,WeatherDisplay:10.37,2013-07-20 21:58:00,
2013-07-20 18:03:00,85.3,75.2,29.67,SW,225,1.4,3.5,72,0.00,CLR,,0.00,WeatherDisplay:10.37,2013-07-20 22:03:00,
2013-07-20 18:09:00,85.1,75.1,29.66,NW,315,2.4,5.8,72,0.00,CLR,,0.00,WeatherDisplay:10.37,2013-07-20 22:09:00,
2013-07-20 18:15:00,84.7,75.1,29.66,WSW,248,1.8,4.0,73,0.00,CLR,,0.00,WeatherDisplay:10.37,2013-07-20 22:15:00,
2013-07-20 18:20:00,84.2,74.6,29.66,SW,225,2.4,2.4,73,0.00,CLR,,0.00,WeatherDisplay:10.37,2013-07-20 22:20:00,
2013-07-20 18:25:00,83.8,74.7,29.66,SW,225,2.9,2.9,74,0.00,CLR,,0.00,WeatherDisplay:10.37,2013-07-20 22:25:00,
2013-07-20 18:30:00,83.3,74.5,29.67,WNW,292,0.9,4.6,75,0.00,CLR,,0.00,WeatherDisplay:10.37,2013-07-20 22:30:00,
2013-07-20 18:35:00,83.1,74.4,29.67,SW,225,1.6,2.3,75,0.00,CLR,,0.00,WeatherDisplay:10.37,2013-07-20 22:35:00,
2013-07-20 18:40:00,82.8,74.4,29.67,West,270,2.2,2.3,76,0.00,CLR,,0.00,WeatherDisplay:10.37,2013-07-20 22:40:00,
2013-07-20 18:46:00,82.6,74.2,29.67,West,270,3.3,4.6,76,0.00,CLR,,0.00,WeatherDisplay:10.37,2013-07-20 22:46:00,
2013-07-20 18:51:00,82.2,73.9,29.67,SSE,158,0.7,3.5,76,0.00,CLR,,0.00,WeatherDisplay:10.37,2013-07-20 22:51:00,
2013-07-20 18:56:00,81.7,73.8,29.67,WNW,292,3.6,3.6,77,0.00,CLR,,0.00,WeatherDisplay:10.37,2013-07-20 22:56:00,
2013-07-20 19:01:00,81.7,73.4,29.67,WSW,248,1.8,4.6,76,0.00,CLR,,0.00,WeatherDisplay:10.37,2013-07-20 23:01:00,
2013-07-20 19:06:00,81.5,73.6,29.67,SW,225,6.9,6.9,77,0.00,CLR,,0.00,WeatherDisplay:10.37,2013-07-20 23:06:00,
2013-07-20 19:11:00,81.3,73.4,29.67,SSW,202,1.4,1.4,77,0.00,CLR,,0.00,WeatherDisplay:10.37,2013-07-20 23:11:00,
2013-07-20 19:16:00,81.1,73.6,29.67,SW,225,5.9,5.9,78,0.00,CLR,,0.00,WeatherDisplay:10.37,2013-07-20 23:16:00,
2013-07-20 19:23:00,80.8,72.9,29.67,SW,225,1.8,4.6,77,0.00,CLR,,0.00,WeatherDisplay:10.37,2013-07-20 23:23:00,
2013-07-20 19:28:00,80.6,73.1,29.68,SW,225,1.1,2.3,78,0.00,CLR,,0.00,WeatherDisplay:10.37,2013-07-20 23:28:00,
2013-07-20 19:33:00,80.2,73.1,29.68,SSW,202,1.8,4.0,79,0.00,CLR,,0.00,WeatherDisplay:10.37,2013-07-20 23:33:00,
2013-07-20 19:39:00,79.9,72.8,29.68,SW,225,1.8,1.8,79,0.00,CLR,,0.00,WeatherDisplay:10.37,2013-07-20 23:39:00,
2013-07-20 19:44:00,79.7,73.0,29.68,North,0,1.8,5.8,80,0.00,CLR,,0.00,WeatherDisplay:10.37,2013-07-20 23:44:00,
2013-07-20 19:49:00,79.3,72.6,29.68,SSW,202,0.5,1.1,80,0.00,CLR,,0.00,WeatherDisplay:10.37,2013-07-20 23:49:00,
2013-07-20 19:54:00,79.2,72.5,29.68,SW,225,0.2,2.3,80,0.00,CLR,,0.00,WeatherDisplay:10.37,2013-07-20 23:54:00,
2013-07-20 19:59:00,78.8,72.1,29.68,SW,225,0.9,6.9,80,0.00,CLR,,0.00,WeatherDisplay:10.37,2013-07-20 23:59:00,
2013-07-20 20:05:00,78.8,72.5,29.68,SW,225,2.2,3.8,81,0.00,CLR,,0.00,WeatherDisplay:10.37,2013-07-21 00:05:00,
2013-07-20 20:10:00,78.4,72.5,29.68,SSW,202,4.0,4.6,82,0.00,CLR,,0.00,WeatherDisplay:10.37,2013-07-21 00:10:00,
2013-07-20 20:15:00,78.3,72.3,29.68,West,270,1.6,5.8,82,0.00,CLR,,0.00,WeatherDisplay:10.37,2013-07-21 00:15:00,
2013-07-20 20:20:00,78.1,72.1,29.69,WNW,292,2.0,3.5,82,0.00,CLR,,0.00,WeatherDisplay:10.37,2013-07-21 00:20:00,
2013-07-20 20:25:00,77.7,71.8,29.69,SW,225,0.7,3.5,82,0.00,CLR,,0.00,WeatherDisplay:10.37,2013-07-21 00:25:00,
2013-07-20 20:30:00,77.7,72.1,29.69,West,270,2.2,3.5,83,0.00,CLR,,0.00,WeatherDisplay:10.37,2013-07-21 00:30:00,
2013-07-20 20:35:00,77.5,71.6,29.69,SSW,202,4.9,4.9,82,0.00,CLR,,0.00,WeatherDisplay:10.37,2013-07-21 00:35:00,
2013-07-20 20:41:00,77.4,71.8,29.70,SW,225,2.4,4.6,83,0.00,CLR,,0.00,WeatherDisplay:10.37,2013-07-21 00:41:00,
2013-07-20 20:46:00,77.2,71.6,29.70,SW,225,0.5,3.5,83,0.00,CLR,,0.00,WeatherDisplay:10.37,2013-07-21 00:46:00,
2013-07-20 20:51:00,77.0,71.4,29.70,WSW,248,0.5,0.5,83,0.00,CLR,,0.00,WeatherDisplay:10.37,2013-07-21 00:51:00,
2013-07-20 20:56:00,77.0,71.4,29.70,SW,225,1.1,1.1,83,0.00,CLR,,0.00,WeatherDisplay:10.37,2013-07-21 00:56:00,
2013-07-20 21:01:00,76.8,71.3,29.71,South,180,0.5,2.3,83,0.00,CLR,,0.00,WeatherDisplay:10.37,2013-07-21 01:01:00,
2013-07-20 21:07:00,76.6,71.1,29.71,SSW,202,0.2,1.1,83,0.00,CLR,,0.00,WeatherDisplay:10.37,2013-07-21 01:07:00,
2013-07-20 21:12:00,76.6,71.1,29.71,SSW,202,1.8,2.3,83,0.00,CLR,,0.00,WeatherDisplay:10.37,2013-07-21 01:12:00,
2013-07-20 21:18:00,76.5,71.3,29.72,SW,225,1.1,3.5,84,0.00,CLR,,0.00,WeatherDisplay:10.37,2013-07-21 01:18:00,
2013-07-20 21:23:00,76.3,71.4,29.72,SSE,158,1.4,1.4,85,0.00,CLR,,0.00,WeatherDisplay:10.37,2013-07-21 01:23:00,
2013-07-20 21:28:00,76.3,71.4,29.72,SW,225,0.9,2.3,85,0.00,CLR,,0.00,WeatherDisplay:10.37,2013-07-21 01:28:00,
2013-07-20 21:33:00,76.3,71.1,29.72,South,180,1.8,2.3,84,0.00,CLR,,0.00,WeatherDisplay:10.37,2013-07-21 01:33:00,
2013-07-20 21:38:00,76.3,71.4,29.72,WSW,248,0.5,2.3,85,0.00,CLR,,0.00,WeatherDisplay:10.37,2013-07-21 01:38:00,
2013-07-20 21:43:00,76.3,71.4,29.72,South,180,0.9,2.3,85,0.00,CLR,,0.00,WeatherDisplay:10.37,2013-07-21 01:43:00,
2013-07-20 21:48:00,76.3,71.4,29.72,SW,225,1.1,1.4,85,0.00,CLR,,0.00,WeatherDisplay:10.37,2013-07-21 01:48:00,
2013-07-20 21:53:00,76.3,71.4,29.72,SSW,202,2.4,2.4,85,0.00,CLR,,0.00,WeatherDisplay:10.37,2013-07-21 01:53:00,
2013-07-20 21:58:00,76.1,71.3,29.73,SSE,158,1.1,2.3,85,0.00,CLR,,0.00,WeatherDisplay:10.37,2013-07-21 01:58:00,
2013-07-20 22:03:00,76.1,71.3,29.72,WSW,248,0.5,2.3,85,0.00,CLR,,0.00,WeatherDisplay:10.37,2013-07-21 02:03:00,
2013-07-20 22:09:00,76.1,71.3,29.73,SW,225,1.4,2.3,85,0.00,CLR,,0.00,WeatherDisplay:10.37,2013-07-21 02:09:00,
2013-07-20 22:14:00,76.1,71.3,29.72,SW,225,1.1,2.3,85,0.00,CLR,,0.00,WeatherDisplay:10.37,2013-07-21 02:14:00,
2013-07-20 22:19:00,76.1,71.3,29.73,SSW,202,0.9,2.4,85,0.00,CLR,,0.00,WeatherDisplay:10.37,2013-07-21 02:19:00,
2013-07-20 22:24:00,76.1,71.3,29.73,SSW,202,0.5,1.1,85,0.00,CLR,,0.00,WeatherDisplay:10.37,2013-07-21 02:24:00,
2013-07-20 22:29:00,76.1,71.3,29.74,WSW,248,1.6,2.3,85,0.00,CLR,,0.00,WeatherDisplay:10.37,2013-07-21 02:29:00,
2013-07-20 22:35:00,75.9,71.1,29.74,SW,225,0.0,1.6,85,0.00,CLR,,0.00,WeatherDisplay:10.37,2013-07-21 02:35:00,
2013-07-20 22:40:00,76.1,71.3,29.74,NW,315,0.5,0.5,85,0.00,CLR,,0.00,WeatherDisplay:10.37,2013-07-21 02:40:00,
2013-07-20 22:46:00,76.1,71.3,29.74,NW,315,0.5,0.5,85,0.00,CLR,,0.00,WeatherDisplay:10.37,2013-07-21 02:46:00,
2013-07-20 22:51:00,76.3,71.4,29.74,NW,315,0.5,0.5,85,0.00,CLR,,0.00,WeatherDisplay:10.37,2013-07-21 02:51:00,
2013-07-20 22:56:00,76.3,71.4,29.74,NW,315,0.5,0.5,85,0.00,CLR,,0.00,WeatherDisplay:10.37,2013-07-21 02:56:00,
2013-07-20 23:01:00,76.3,71.4,29.74,NW,315,0.5,0.5,85,0.00,CLR,,0.00,WeatherDisplay:10.37,2013-07-21 03:01:00,
2013-07-20 23:06:00,76.1,70.9,29.74,NW,315,0.5,0.0,84,0.00,CLR,,0.00,WeatherDisplay:10.37,2013-07-21 03:06:00,
2013-07-20 23:12:00,75.9,70.7,29.74,North,0,0.0,0.0,84,0.00,CLR,,0.00,WeatherDisplay:10.37,2013-07-21 03:12:00,
2013-07-20 23:17:00,75.6,70.4,29.74,North,0,0.0,0.0,84,0.00,CLR,,0.00,WeatherDisplay:10.37,2013-07-21 03:17:00,
2013-07-20 23:22:00,75.4,69.9,29.74,North,0,0.0,0.0,83,0.00,CLR,,0.00,WeatherDisplay:10.37,2013-07-21 03:22:00,
2013-07-20 23:27:00,75.2,69.7,29.74,North,0,0.0,0.0,83,0.00,CLR,,0.00,WeatherDisplay:10.37,2013-07-21 03:27:00,
2013-07-20 23:32:00,75.0,69.5,29.74,North,0,0.0,0.0,83,0.00,CLR,,0.00,WeatherDisplay:10.37,2013-07-21 03:32:00,
2013-07-20 23:37:00,74.8,69.7,29.74,North,0,0.0,0.0,84,0.00,CLR,,0.00,WeatherDisplay:10.37,2013-07-21 03:37:00,
2013-07-20 23:44:00,74.7,69.5,29.74,North,0,0.0,0.0,84,0.00,CLR,,0.00,WeatherDisplay:10.37,2013-07-21 03:44:00,
2013-07-20 23:50:00,74.5,69.3,29.74,North,0,0.0,0.0,84,0.00,CLR,,0.00,WeatherDisplay:10.37,2013-07-21 03:50:00,
2013-07-20 23:55:00,74.5,69.7,29.74,North,0,0.0,0.0,85,0.00,CLR,,0.00,WeatherDisplay:10.37,2013-07-21 03:55:00,